Location: Unspecified
(0.0000°N, 0.0000°E)
Time: 17:24:12
(UTC+00:00)

RS-15 - Pass Details

Date: 10 December 2017
Orbit: 1886 x 2158 km, 64.8° (Epoch: 18 January)

Event Time Altitude Azimuth Distance (km) Brightness Sun altitude
Exits shadow 02:15:16 53° 145° (SE) 2,235 8.3 -48.5°
Drops below altitude 10° 02:22:55 10° 155° (SSE) 4,267 10.2 -46.9°
Sets 02:26:08 0° 156° (SSE) 5,264 10.9 -46.2°
